This is the latest recevied weather packets stored in our database for station/object M0UPS-13. If no packets are shown the sender has not sent any weather packets the latest 10 day(s).
| Time | Temp. | Humidity | Pressure | Rain* | Wind** | Luminosity | Snow |
|---|---|---|---|---|---|---|---|
| 1777277702 | 15° C | 60% | 1025.3 hPa | 0 mm | - | 319 W/m² | - |
| 1777277402 | 14.44° C | 62% | 1025.2 hPa | 0 mm | - | 309 W/m² | - |
| 1777277102 | 15° C | 61% | 1025.5 hPa | 0 mm | - | 298 W/m² | - |
| 1777276802 | 15° C | 63% | 1025.3 hPa | 0 mm | - | 274 W/m² | - |
| 1777276502 | 13.89° C | 65% | 1025.6 hPa | 0 mm | - | 209 W/m² | - |
| 1777276202 | 13.89° C | 65% | 1025.2 hPa | 0 mm | - | 258 W/m² | - |
| 1777275903 | 13.89° C | 67% | 1025.2 hPa | 0 mm | - | 242 W/m² | - |
| 1777275603 | 13.33° C | 68% | 1025.3 hPa | 0 mm | - | 230 W/m² | - |
| 1777275302 | 12.78° C | 69% | 1025.3 hPa | 0 mm | - | 220 W/m² | - |
| 1777275002 | 12.78° C | 70% | 1025.5 hPa | 0 mm | - | 195 W/m² | - |
| 1777274702 | 12.78° C | 71% | 1025.5 hPa | 0 mm | - | 144 W/m² | - |
| 1777274402 | 12.22° C | 72% | 1025.7 hPa | 0 mm | - | 182 W/m² | - |
| 1777274103 | 12.22° C | 73% | 1025.5 hPa | 0 mm | - | 204 W/m² | - |
| 1777273803 | 12.22° C | 72% | 1025.5 hPa | 0 mm | - | 158 W/m² | - |
| 1777273502 | 12.22° C | 72% | 1025.7 hPa | 0 mm | - | 146 W/m² | - |
| 1777273203 | 12.22° C | 72% | 1025.6 hPa | 0 mm | - | 140 W/m² | - |
| 1777272902 | 12.22° C | 73% | 1025.6 hPa | 0 mm | - | 117 W/m² | - |
| 1777272602 | 11.67° C | 73% | 1025.6 hPa | 0 mm | - | 114 W/m² | - |
| 1777272303 | 11.11° C | 74% | 1025.7 hPa | 0 mm | - | 101 W/m² | - |
| 1777272002 | 11.11° C | 75% | 1025.6 hPa | 0 mm | - | 88 W/m² | - |
| 1777271702 | 10° C | 79% | 1025.6 hPa | 0 mm | - | 80 W/m² | - |
| 1777271402 | 10° C | 79% | 1025.6 hPa | 0 mm | - | 71 W/m² | - |
| 1777271102 | 9.44° C | 80% | 1025.5 hPa | 0 mm | - | 67 W/m² | - |
| 1777270802 | 9.44° C | 82% | 1025.5 hPa | 0 mm | - | 62 W/m² | - |
| 1777270502 | 8.89° C | 84% | 1025.2 hPa | 0 mm | - | 54 W/m² | - |
* Rain latest hour (hover to see other rain measurements)
** Current wind speed in m/s (hover to see current wind gust speed)